Time,TemperatureF,DewpointF,PressureIn,WindDirection,WindDirectionDegrees,WindSpeedMPH,WindSpeedGustMPH,Humidity,HourlyPrecipIn,Conditions,Clouds,dailyrainin,SolarRadiationWatts/m^2,SoftwareType,DateUTC
2013-08-15 00:02:00,77.0,74.0,-100.00,East,95,2.0,4.0,90,0.00,,,0.03,0.000000,,2013-08-15 05:02:00,
2013-08-15 00:42:00,76.0,74.0,-100.00,NE,49,3.0,5.0,92,0.00,,,0.03,0.000000,,2013-08-15 05:42:00,
2013-08-15 00:52:00,76.0,74.0,-100.00,NE,49,3.0,5.0,92,0.00,,,0.03,0.000000,,2013-08-15 05:52:00,
2013-08-15 01:02:00,76.0,74.0,-100.00,NE,49,3.0,5.0,92,0.00,,,0.03,0.000000,,2013-08-15 06:02:00,
2013-08-15 01:21:00,76.0,74.0,-100.00,NE,38,0.0,5.0,92,0.00,,,0.03,0.000000,,2013-08-15 06:21:00,
2013-08-15 01:32:00,76.0,74.0,-100.00,NE,38,0.0,5.0,92,0.00,,,0.03,0.000000,,2013-08-15 06:32:00,
2013-08-15 01:42:00,76.0,74.0,-100.00,NE,38,0.0,5.0,92,0.00,,,0.03,0.000000,,2013-08-15 06:42:00,
2013-08-15 01:52:00,76.0,74.0,-100.00,NE,38,0.0,5.0,92,0.00,,,0.03,0.000000,,2013-08-15 06:52:00,
2013-08-15 02:02:00,76.0,74.0,-100.00,NE,38,0.0,5.0,92,0.00,,,0.03,0.000000,,2013-08-15 07:02:00,
2013-08-15 02:21:00,76.0,74.0,-100.00,ENE,57,1.0,6.0,93,0.00,,,0.03,0.000000,,2013-08-15 07:21:00,
2013-08-15 02:32:00,76.0,74.0,-100.00,ENE,57,1.0,6.0,93,0.00,,,0.03,0.000000,,2013-08-15 07:32:00,
2013-08-15 02:42:00,76.0,74.0,-100.00,ENE,57,1.0,6.0,93,0.00,,,0.03,0.000000,,2013-08-15 07:42:00,
2013-08-15 02:52:00,76.0,74.0,-100.00,ENE,57,1.0,6.0,93,0.00,,,0.03,0.000000,,2013-08-15 07:52:00,
2013-08-15 03:02:00,76.0,74.0,-100.00,ENE,57,1.0,6.0,93,0.00,,,0.03,0.000000,,2013-08-15 08:02:00,
2013-08-15 03:21:00,76.0,71.0,-100.00,ENE,59,5.0,8.0,84,0.00,,,0.03,0.000000,,2013-08-15 08:21:00,
2013-08-15 03:33:00,76.0,71.0,-100.00,ENE,59,5.0,8.0,84,0.00,,,0.03,0.000000,,2013-08-15 08:33:00,
2013-08-15 03:42:00,76.0,71.0,-100.00,ENE,59,5.0,8.0,84,0.00,,,0.03,0.000000,,2013-08-15 08:42:00,
2013-08-15 03:52:00,76.0,71.0,-100.00,ENE,59,5.0,8.0,84,0.00,,,0.03,0.000000,,2013-08-15 08:52:00,
2013-08-15 04:01:00,76.0,71.0,-100.00,ENE,59,5.0,8.0,84,0.00,,,0.03,0.000000,,2013-08-15 09:01:00,
2013-08-15 04:03:00,75.0,69.0,-100.00,NE,52,4.0,9.0,82,0.00,,,0.03,0.000000,,2013-08-15 09:03:00,
2013-08-15 04:42:00,75.0,69.0,-100.00,NE,52,4.0,9.0,82,0.00,,,0.03,0.000000,,2013-08-15 09:42:00,
2013-08-15 04:53:00,75.0,69.0,-100.00,NE,52,4.0,9.0,82,0.00,,,0.03,0.000000,,2013-08-15 09:53:00,
2013-08-15 05:42:00,75.0,68.0,-100.00,ENE,68,4.0,8.0,80,0.00,,,0.03,0.000000,,2013-08-15 10:42:00,
2013-08-15 05:52:00,75.0,68.0,-100.00,ENE,68,4.0,8.0,80,0.00,,,0.03,0.000000,,2013-08-15 10:52:00,
2013-08-15 06:02:00,75.0,68.0,-100.00,ENE,68,4.0,8.0,80,0.00,,,0.03,0.000000,,2013-08-15 11:02:00,
2013-08-15 06:42:00,74.0,67.0,-100.00,ENE,61,5.0,9.0,79,0.00,,,0.03,0.000000,,2013-08-15 11:42:00,
2013-08-15 06:52:00,74.0,67.0,-100.00,ENE,61,5.0,9.0,79,0.00,,,0.03,0.000000,,2013-08-15 11:52:00,
2013-08-15 07:01:00,74.0,67.0,-100.00,ENE,61,5.0,9.0,79,0.00,,,0.03,0.000000,,2013-08-15 12:01:00,
2013-08-15 07:21:00,73.0,65.0,-100.00,ENE,61,5.0,10.0,77,0.00,,,0.03,1.000000,,2013-08-15 12:21:00,
2013-08-15 07:32:00,73.0,65.0,-100.00,ENE,61,5.0,10.0,77,0.00,,,0.03,1.000000,,2013-08-15 12:32:00,
2013-08-15 07:42:00,73.0,65.0,-100.00,ENE,61,5.0,10.0,77,0.00,,,0.03,1.000000,,2013-08-15 12:42:00,
2013-08-15 07:52:00,73.0,65.0,-100.00,ENE,61,5.0,10.0,77,0.00,,,0.03,1.000000,,2013-08-15 12:52:00,
2013-08-15 08:01:00,73.0,65.0,-100.00,ENE,61,5.0,10.0,77,0.00,,,0.03,1.000000,,2013-08-15 13:01:00,
2013-08-15 08:21:00,72.0,63.0,-100.00,ENE,64,6.0,11.0,73,0.00,,,0.03,38.000000,,2013-08-15 13:21:00,
2013-08-15 08:32:00,72.0,63.0,-100.00,ENE,64,6.0,11.0,73,0.00,,,0.03,38.000000,,2013-08-15 13:32:00,
2013-08-15 08:42:00,72.0,63.0,-100.00,ENE,64,6.0,11.0,73,0.00,,,0.03,38.000000,,2013-08-15 13:42:00,
2013-08-15 08:52:00,72.0,63.0,-100.00,ENE,64,6.0,11.0,73,0.00,,,0.03,38.000000,,2013-08-15 13:52:00,
2013-08-15 09:01:00,72.0,63.0,-100.00,ENE,64,6.0,11.0,73,0.00,,,0.03,38.000000,,2013-08-15 14:01:00,
2013-08-15 09:03:00,73.0,64.0,-100.00,NE,47,5.0,11.0,73,0.00,,,0.03,127.000000,,2013-08-15 14:03:00,
2013-08-15 09:47:00,73.0,64.0,-100.00,NE,47,5.0,11.0,73,0.00,,,0.03,127.000000,,2013-08-15 14:47:00,
2013-08-15 09:55:00,73.0,64.0,-100.00,NE,47,5.0,11.0,73,0.00,,,0.03,127.000000,,2013-08-15 14:55:00,
2013-08-15 10:03:00,75.0,64.0,-100.00,East,86,5.0,10.0,69,0.00,,,0.03,243.000000,,2013-08-15 15:03:00,
2013-08-15 10:43:00,75.0,64.0,-100.00,East,86,5.0,10.0,69,0.00,,,0.03,243.000000,,2013-08-15 15:43:00,
2013-08-15 10:54:00,75.0,64.0,-100.00,East,86,5.0,10.0,69,0.00,,,0.03,243.000000,,2013-08-15 15:54:00,
2013-08-15 11:03:00,80.0,67.0,-100.00,ENE,64,4.0,10.0,65,0.00,,,0.03,417.000000,,2013-08-15 16:03:00,
2013-08-15 11:26:00,80.0,67.0,-100.00,ENE,64,4.0,10.0,65,0.00,,,0.03,417.000000,,2013-08-15 16:26:00,
2013-08-15 11:35:00,80.0,67.0,-100.00,ENE,64,4.0,10.0,65,0.00,,,0.03,417.000000,,2013-08-15 16:35:00,
2013-08-15 11:44:00,80.0,67.0,-100.00,ENE,64,4.0,10.0,65,0.00,,,0.03,417.000000,,2013-08-15 16:44:00,
2013-08-15 11:55:00,80.0,67.0,-100.00,ENE,64,4.0,10.0,65,0.00,,,0.03,417.000000,,2013-08-15 16:55:00,
2013-08-15 12:03:00,82.0,67.0,-100.00,NNW,346,3.0,7.0,61,0.00,,,0.03,663.000000,,2013-08-15 17:03:00,
2013-08-15 12:55:00,82.0,67.0,-100.00,NNW,346,3.0,7.0,61,0.00,,,0.03,663.000000,,2013-08-15 17:55:00,
2013-08-15 13:00:00,-999.0,-99.9,-100.00,NNW,346,3.0,7.0,-999,-99.99,,,-99.99,663.000000,,2013-08-15 18:00:00,
2013-08-15 13:03:00,-999.0,-99.9,-100.00,East,101,3.0,8.0,-999,0.00,,,0.03,971.000000,,2013-08-15 18:03:00,
2013-08-15 13:36:00,-999.0,-99.9,-100.00,East,101,3.0,8.0,-999,0.00,,,0.03,971.000000,,2013-08-15 18:36:00,
2013-08-15 13:49:00,86.0,68.0,-100.00,East,101,3.0,8.0,55,0.00,,,0.03,971.000000,,2013-08-15 18:49:00,
2013-08-15 14:03:00,89.0,70.0,-100.00,NE,56,4.0,10.0,54,0.00,,,0.03,948.000000,,2013-08-15 19:03:00,
2013-08-15 14:34:00,-999.0,-99.9,-100.00,NE,56,4.0,10.0,-999,-99.99,,,-99.99,948.000000,,2013-08-15 19:34:00,
2013-08-15 14:39:00,89.0,70.0,-100.00,NE,56,4.0,10.0,54,0.00,,,0.03,948.000000,,2013-08-15 19:39:00,
2013-08-15 14:49:00,89.0,70.0,-100.00,NE,56,4.0,10.0,54,0.00,,,0.03,948.000000,,2013-08-15 19:49:00,
2013-08-15 15:03:00,90.0,67.0,-100.00,NE,35,4.0,10.0,47,0.00,,,0.03,715.000000,,2013-08-15 20:03:00,
2013-08-15 15:46:00,90.0,67.0,-100.00,NE,35,4.0,10.0,47,0.00,,,0.03,715.000000,,2013-08-15 20:46:00,
2013-08-15 16:01:00,90.0,67.0,-100.00,NE,35,4.0,10.0,47,0.00,,,0.03,715.000000,,2013-08-15 21:01:00,
2013-08-15 16:03:00,90.0,66.0,-100.00,NE,41,6.0,11.0,46,0.00,,,0.03,614.000000,,2013-08-15 21:03:00,
2013-08-15 16:41:00,90.0,66.0,-100.00,NE,41,6.0,11.0,46,0.00,,,0.03,614.000000,,2013-08-15 21:41:00,
2013-08-15 16:49:00,90.0,66.0,-100.00,NE,41,6.0,11.0,46,0.00,,,0.03,614.000000,,2013-08-15 21:49:00,
2013-08-15 16:57:00,90.0,66.0,-100.00,NE,41,6.0,11.0,46,0.00,,,0.03,614.000000,,2013-08-15 21:57:00,
2013-08-15 17:03:00,89.0,64.0,-100.00,NE,43,5.0,10.0,43,0.00,,,0.00,503.000000,,2013-08-15 22:03:00,
2013-08-15 17:29:00,89.0,64.0,-100.00,NE,43,5.0,10.0,43,0.00,,,0.00,503.000000,,2013-08-15 22:29:00,
2013-08-15 17:40:00,89.0,64.0,-100.00,NE,43,5.0,10.0,43,0.00,,,0.00,503.000000,,2013-08-15 22:40:00,
2013-08-15 17:49:00,89.0,64.0,-100.00,NE,43,5.0,10.0,43,0.00,,,0.00,503.000000,,2013-08-15 22:49:00,
2013-08-15 17:58:00,89.0,64.0,-100.00,NE,43,5.0,10.0,43,0.00,,,0.00,503.000000,,2013-08-15 22:58:00,
2013-08-15 18:03:00,90.0,63.0,-100.00,NE,53,6.0,11.0,41,0.00,,,0.00,378.000000,,2013-08-15 23:03:00,
2013-08-15 18:35:00,-999.0,-99.9,-100.00,NE,53,6.0,11.0,41,0.00,,,0.00,378.000000,,2013-08-15 23:35:00,
2013-08-15 18:48:00,90.0,63.0,-100.00,NE,53,6.0,11.0,41,0.00,,,0.00,378.000000,,2013-08-15 23:48:00,
2013-08-15 18:55:00,90.0,63.0,-100.00,NE,53,6.0,11.0,41,0.00,,,0.00,378.000000,,2013-08-15 23:55:00,
2013-08-15 19:03:00,89.0,61.0,-100.00,North,356,5.0,9.0,40,0.00,,,0.00,232.000000,,2013-08-16 00:03:00,
2013-08-15 19:46:00,89.0,61.0,-100.00,North,356,5.0,9.0,40,0.00,,,0.00,232.000000,,2013-08-16 00:46:00,
2013-08-15 19:52:00,89.0,61.0,-100.00,North,356,5.0,9.0,40,0.00,,,0.00,232.000000,,2013-08-16 00:52:00,
2013-08-15 20:43:00,-999.0,-99.9,-100.00,North,351,3.0,-999.0,-999,-99.99,,,-99.99,,,2013-08-16 01:43:00,
2013-08-15 20:54:00,85.0,61.0,-100.00,North,351,3.0,8.0,44,0.00,,,0.00,30.000000,,2013-08-16 01:54:00,
2013-08-15 21:02:00,85.0,61.0,-100.00,North,351,3.0,8.0,44,0.00,,,0.00,30.000000,,2013-08-16 02:02:00,
2013-08-15 21:03:00,81.0,60.0,-100.00,North,3,2.0,5.0,49,0.00,,,0.00,0.000000,,2013-08-16 02:03:00,
2013-08-15 21:44:00,81.0,60.0,-100.00,North,3,2.0,5.0,49,0.00,,,0.00,0.000000,,2013-08-16 02:44:00,
2013-08-15 21:52:00,81.0,60.0,-100.00,North,3,2.0,5.0,49,0.00,,,0.00,0.000000,,2013-08-16 02:52:00,
2013-08-15 22:03:00,77.0,63.0,-100.00,East,90,0.0,4.0,63,0.00,,,0.00,0.000000,,2013-08-16 03:03:00,
2013-08-15 22:43:00,77.0,63.0,-100.00,East,90,0.0,4.0,63,0.00,,,0.00,0.000000,,2013-08-16 03:43:00,
2013-08-15 22:53:00,77.0,63.0,-100.00,East,90,0.0,4.0,63,0.00,,,0.00,0.000000,,2013-08-16 03:53:00,
2013-08-15 23:43:00,78.0,59.0,-100.00,NE,48,4.0,7.0,53,0.00,,,0.00,0.000000,,2013-08-16 04:43:00,
2013-08-15 23:54:00,78.0,59.0,-100.00,NE,48,4.0,7.0,53,0.00,,,0.00,0.000000,,2013-08-16 04:54:00,